Regional Weather Roundup
Issued by NWS

Home | Current Version | Previous Version | Graphics & Text | Print | Product List | Glossary On
Versions: 1 2 3 4 5 6 7 8 9 10 11 12 13 14 15 16 17 18 19 20 21 22 23 24 25 26 27 28 29 30 31 32 33 34 35 36 37 38 39 40 41 42 43 44 45 46 47 48 49 50
000
ASUS43 KMKX 222111
RWRWI

WISCONSIN REGIONAL WEATHER ROUNDUP
NATIONAL WEATHER SERVICE MILWAUKEE/SULLIVAN WI
400 PM CDT FRI JUL 22 2016

NOTE: "FAIR" INDICATES FEW OR NO CLOUDS BELOW 12,000 FEET WITH NO
SIGNIFICANT WEATHER AND/OR OBSTRUCTIONS TO VISIBILITY.

WIZ001-002-006>008-014>016-023>028-222200-
NORTHWEST WISCONSIN

CITY           SKY/WX    TMP DP  RH WIND       PRES   REMARKS
SUPERIOR ARPT  SUNNY     91  67  44 W9        29.97R HX  94
ASHLAND        MOSUNNY   92  66  42 W10       29.97F HX  94
HAYWARD        SUNNY     89  64  43 W7        30.01F HX  90
SIREN          SUNNY     90  57  33 W8        30.02R HX  88
CUMBERLAND     SUNNY     88  57  35 NW6       30.02S HX  86
RICE LAKE      SUNNY     89  61  39 CALM      30.03R HX  89
CHETEK         SUNNY     91  62  37 CALM      30.01S HX  91
LADYSMITH      SUNNY     89  64  42 W3        30.03S HX  90
EAU CLAIRE     SUNNY     93  61  34 VRB5      29.98F HX  93
MENOMONIE      SUNNY     96  56  25 SE3       29.99F HX  94
NEW RICHMOND   SUNNY     94  54  25 SE5       30.00S HX  92
OSCEOLA        SUNNY     92  61  34 CALM      30.03S HX  92
$$

WIZ003>005-009-010-017-018-222200-
NORTH CENTRAL WISCONSIN

CITY           SKY/WX    TMP DP  RH WIND       PRES   REMARKS
MANITOWISH WTR SUNNY     88  57  35 NW12      30.01S HX  86
ARBOR VITAE    SUNNY     91  60  36 NW9       30.01F HX  90
WOODRUFF       SUNNY     91  60  36 NW9       30.01F HX  90
RHINELANDER    SUNNY     90  62  39 W10       30.02F HX  90
EAGLE RIVER    SUNNY     89  53  29 NW13      30.01S HX  86
LAND O LAKES   SUNNY     89  49  25 NW8G17    30.02R HX  86
PHILLIPS       SUNNY     87  64  45 W3        30.01F HX  88
TOMAHAWK       SUNNY     88  60  38 N8        30.01F HX  87
MEDFORD        SUNNY     87  64  44 N5        30.01F HX  88
MERRILL        SUNNY     90  64  42 NW6       30.00F HX  91
$$

WIZ029-030-035-036-043>047-222200-
CENTRAL WISCONSIN

CITY           SKY/WX    TMP DP  RH WIND       PRES   REMARKS
WAUSAU         SUNNY     90  60  36 W8        29.98F HX  89
MOSINEE        SUNNY     90  61  37 SW6       30.01F HX  89
MARSHFIELD     SUNNY     90  64  42 W6        30.00F HX  91
STEVENS POINT  SUNNY     88  64  45 W5        30.00F HX  89
WAUPACA        SUNNY     94  60  31 W7        29.98S HX  94
WAUTOMA        SUNNY     92  69  47 W8        29.98F HX  97
WISC RAPIDS    SUNNY     92  60  34 NW8       30.00F HX  91
CAMP DOUGLAS   SUNNY     88  78  70 W1        29.98F HX 101
$$

WIZ011>013-019>022-031-037>040-048>050-222200-
NORTHEAST WISCONSIN

CITY           SKY/WX    TMP DP  RH WIND       PRES   REMARKS
ANTIGO         SUNNY     88  64  44 CALM      30.01F HX  89
SHAWANO        SUNNY     93  62  35 W7        29.96F HX  93
OCONTO         SUNNY     90  67  47 SW5       29.94S HX  93
STURGEON BAY   SUNNY     90  67  46 SW9       29.96F HX  93
GREEN BAY      SUNNY     89  71  55 W6        29.96F HX  95
MANITOWOC      SUNNY     84  67  56 SE8       29.97F HX  86
APPLETON       MOSUNNY   90  63  40 W8        29.97F HX  90
CLINTONVILLE   SUNNY     91  52  25 W6        29.97F HX  89
OSHKOSH        SUNNY     89  72  56 SW7       29.97F HX  96
$$

WIZ032>034-041-042-053>061-222200-
SOUTHWEST WISCONSIN

CITY           SKY/WX    TMP DP  RH WIND       PRES   REMARKS
LA CROSSE      SUNNY     92  75  57 VRB5      29.96F HX 103
SPARTA         MOSUNNY   89  76  64 NW6       29.98F HX 100
VIROQUA        MOSUNNY   86  77  74 W3        30.02F HX  97
BOSCOBEL       MOSUNNY   89  77  67 W5        29.98F HAZE    HX 101
PRAIRIE DU CHI MOSUNNY   87  74  66 S3        29.98F HX  94
PLATTEVILLE    PTSUNNY   85  78  79 CALM      30.01F HX  97
$$

WIZ056-057-062-063-064-067-068-222200-
SOUTH CENTRAL WISCONSIN

CITY           SKY/WX    TMP DP  RH WIND       PRES   REMARKS
REEDSBURG      PTSUNNY   87  79  76 SW6       29.98F HX 101
BARABOO/DELLS  CLOUDY    88  75  66 SW5       29.99F HX  97
LONE ROCK      MOSUNNY   87  78  74 W7        29.99F HX 100
MINERAL POINT  CLOUDY    86  77  74 CALM      30.02F HX  97
MADISON        PTSUNNY   87  76  69 N6        30.00S HX  97
MIDDLETON      CLOUDY    88  76  65 NW3       30.01S HX  99
WATERTOWN      PTSUNNY   89  75  63 W6        29.99F HX  99
MONROE         CLOUDY    86  73  66 W3        30.01F HX  93
JANESVILLE     PTSUNNY   88  73  62 W6        30.00F HX  96
$$

WIZ051-052-058>065-066-070>072-222200-
SOUTHEAST WISCONSIN

CITY           SKY/WX    TMP DP  RH WIND       PRES   REMARKS
MILWAUKEE      MOSUNNY   87  69  54 E12       29.98S HX  91
WAUKESHA       MOSUNNY   88  72  58 NW7       30.00F HX  94
MILWAUKEE/TIMM MOSUNNY   90  68  48 W6        29.99F HX  93
RACINE         SUNNY     87  70  56 E8        30.00F HX  92
BURLINGTON     MOSUNNY   88  74  63 NW5       29.99S HX  97
KENOSHA        MOSUNNY   89  73  59 VRB5      29.99F HX  97
FOND DU LAC    SUNNY     91  69  48 W7        29.98F HX  96
SHEBOYGAN      SUNNY     91  64  40 NW8       29.97F HX  92
WEST BEND      SUNNY     90  63  40 N6        29.99S HX  90
JUNEAU         MOSUNNY   87  73  64 CALM      30.01F HX  94
$$

LSZ147-162-222200-
LAKE SUPERIOR

STATION/POSITION TIME  TEMP    WIND        PRES    WAVE
                       AIR SEA DIR/SP/G            HT/PER
                 (UTC) (F)     (DEG/KT/KT) (MB)    (FT/S)
W MID LAKE BUOY  2050   65 57  250/ 10/ 12 1012.8F   1/ 4
DEVILS ISLAND    2000   74     240/ 18/ 20 1013.9F
SAXON HARBOR     2000   82     310/  3/  8 1014.6F
$$

LMZ867-665-643>646-222200-
LAKE MICHIGAN

STATION/POSITION TIME  TEMP    WIND        PRES    WAVE
                       AIR SEA DIR/SP/G            HT/PER
                 (UTC) (F)     (DEG/KT/KT) (MB)    (FT/S)
CHAMBERS ISLAND  2000   83     180/  6/ 11 1013.9F
S GREEN BAY BUOY 2000   80 76  180/  6/  8   N/A
N MID LAKE BUOY  2050   72 69  200/ 12/ 14 1012.8F   1/ 5
NORTHPORT PIER   2000          140/  6/ 17 1013.5F
KEWAUNEE LAKESHO 2000   69     180/ 10/ 11 1014.8F
SHEBOYGAN LAKESH 2100   76     160/ 13/ 14 1014.9F
PORT WASHINGTON  2040   81     180/  4/  6 1015.9F
ATWATER BUOY     1900   69 56  190/  4/  6 1017.4F
MILWAUKEE LAKESH 2010   78        CALM       N/A
S MID LAKE BUOY  2050   74 73  200/  6/  6 1015.0F   1
KENOSHA   LAKESH 2100   77     160/  8/  9 1014.6F
$$

TC  - TEMPERATURE IN CELSIUS
VSB - VISIBILITY IN STATUTE MILES
WCI - WIND CHILL INDEX
HX  - HEAT INDEX





USA.gov is the U.S. government's official web portal to all federal, state and local government web resources and services.